SCP
0 0 0 0 0 0 0 0 0 0 0 0 0 -0 -0 -0 0 0 0 0 0 0 0 0 0 0 0 0 0 0 0 0 0 0 0 0 0 0
0 0 0 0 0 0 0 0 0 -0 0 -0 0 -0 0 -0 0 0 0 0 0 0 0 0 0 0 0 0 0 0 0 0 0 0 0 0 0 0
0 0 0 0 0 0 0 0 0 0 0 0 0 0 0 0 0 0 0 0 0 0 0 0 0 0 0 0 0 0 0 0 0 0 0 0 0 0
0 0 0 0 0 0 0 0 0 0 0 -0 -0 0 0 0 0 0 0 0 0 0 0 0 0 0 0 0 0 0 0 0 0 0 0 0 0 0
0 0 0 0 0 0 0 0 0 0 -0 -0 0 0 0 0 0 0 0 0 0 0 0 0 0 0 0 0 0 0 0 0 0 0 0 0 0 0
0 0 0 0 0 0 0 -0 -0 -0 -0 -0 0 0 0 0 0 0 0 0 0 0 0 0 0 0 0 0 0 0 0 0 0 0 0 0 0 0
-0 -0 -0 0 0 0 0 -0 -0 0 0 0 0 0 0 0 0 0 0 0 0 0 0 0 0 0 0 0 0 0 0 0 0 0 0 0 0 0
0 0 0 0 -0 -0 -0 0 0 0 0 0 0 0 0 0 0 0 0 0 0 0 0 0 0 0 0 0 0 0 0 0 0 0 0 0 0 0
0 0 0 0 -0 -0 -0 0 0 0 0 0 0 0 0 0 0 0 0 0 0 0 0 0 0 0 0 0 0 0 0 0 0 0 0 0 0 0
0 0 -0 0 0 0 0 0 0 0 0 0 0 0 0 0 0 0 0 0 0 0 0 0 0 0 0 0 0 0 0 0 0 0 0 0 0 0
0 -0 -0 0 0 0 0 0 0 0 0 0 0 0 0 0 0 0 0 0 0 0 0 0 0 0 0 0 0 0 0 0 0 0 0 0 0 0
0 0 0 0 0 0 0 0 0 0 0 0 0 0 0 0 0 0 0 0 0 0 0 0 0 0 0 0 0 0 0 0 0 0 0 0 0 0
0 0 0 0 0 0 0 0 0 0 0 0 0 0 0 0 0 0 0 0 0 0 0 0 0 0 0 0 0 0 0 0 0 0 0 0 0 0
0 0 0 0 0 0 0 0 0 0 0 0 0 0 0 0 0 0 0 0 0 0 0 0 0 0 0 0 0 0 0 0 0 0 0 0 0 0
0 0 0 0 0 0 0 0 0 0 0 0 0 0 0 0 0 0 0 0 0 0 0 0 0 0 0 0 0 0 0 0 0 0 0 0 0 0
0 0 0 0 0 0 0 0 0 0 0 0 0 0 0 0 0 0 0 0 0 0 0 0 0 0 0 0 0 0 0 0 0 0 0 0 0 0
0 0 0 0 0 0 0 0 0 0 0 0 0 0 0 0 0 0 0 0 0 0 0 0 0 0 0 0 0 0 0 0 0 0 0 0 0 0
0 0 0 0 0 0 0 0 0 0 0 0 0 0 0 0 0 0 0 0 0 0 0 0 0 0 0 0 0 0 0 0 0 0 0 0 0 0
0 0 0 0 0 0 0 0 0 0 0 0 0 0 0 0 0 0 0 0 0 0 0 0 0 0 0 0 0 0 0 0 0 0 0 0 0 0
0 0 0 0 0 0 0 0 0 0 0 0 0 0 0 0 0 0 0 0 0 0 0 0 0 0 0 0 0 0 0 0 0 0 0 0 0 0
0 0 0 0 0 0 0 0 0 0 0 0 0 0 0 0 0 0 0 0 0 0 0 0 0 0 0 0 0 0 0 0 0 0 0 0 0 0
0 0 0 0 0 0 0 0 0 0 0 0 0 0 0 0 0 0 0 0 0 0 0 0 0 0 0 0 0 0 0 0 0 0 0 0 0 0
0 0 0 0 0 0 0 0 0 0 0 0 0 0 0 0 0 0 0 0 0 0 0 0 0 0 0 0 0 0 0 0 0 0 0 0 0 0
Wind_Speed_500mb
37 39 37 35 31 29 34 32 37 38 30 28 28 27 25 21 17 13 9 3 2 9 16 20 21 24 29 35 38 37 39 36 35 36 39 42 45 50
45 43 47 46 38 27 23 23 20 29 31 30 26 24 20 16 13 5 3 9 13 18 19 19 21 27 31 36 39 39 34 36 39 41 44 48 52 59
42 41 42 35 38 33 28 25 25 18 32 32 28 24 15 11 14 13 13 18 21 21 21 19 22 28 37 39 37 31 35 38 40 45 52 57 59 58
38 36 33 32 36 31 25 21 22 22 26 31 27 22 15 16 15 16 18 22 22 17 18 24 26 33 36 34 29 29 31 33 45 48 49 51 57 62
32 31 31 23 28 25 19 15 25 29 24 26 31 28 25 19 17 21 27 25 22 21 21 25 26 27 23 25 30 29 33 36 39 42 52 59 64 66
33 31 30 28 26 24 21 21 24 26 25 30 33 31 26 23 25 25 27 28 27 26 26 22 19 16 19 20 23 26 31 36 42 49 56 60 64 69
28 26 26 26 25 23 21 21 21 21 24 27 30 31 31 29 30 27 25 26 28 24 22 20 16 14 14 19 23 26 31 36 44 50 55 60 67 72
19 21 21 21 19 18 20 21 22 24 28 33 36 36 34 34 32 29 25 24 26 21 18 17 12 14 18 24 25 31 36 43 50 54 58 64 69 72
23 21 21 21 20 18 17 19 23 25 28 32 35 38 38 35 32 28 24 24 25 23 17 16 17 15 19 26 26 32 40 45 49 55 61 65 70 72
23 21 19 15 14 15 18 21 25 29 33 36 38 38 36 33 30 27 26 27 27 21 17 20 23 21 20 21 29 35 41 48 53 57 63 67 68 69
17 16 16 15 15 15 18 22 25 28 31 34 35 34 32 31 30 29 30 30 26 24 23 25 21 25 27 25 36 44 47 52 57 62 61 62 66 76
22 23 23 23 23 23 24 25 28 28 30 32 34 35 33 31 31 30 30 27 24 22 22 22 20 24 27 29 42 49 52 53 59 60 61 66 70 72
30 30 31 33 34 34 34 33 31 34 36 38 39 40 39 37 34 32 29 24 23 22 20 21 22 25 30 41 48 50 55 55 58 56 66 67 65 62
44 43 44 47 48 49 48 43 42 44 46 46 47 47 44 40 34 30 24 23 23 20 16 19 24 27 38 41 52 58 52 54 55 66 67 70 71 66
60 58 58 59 59 60 61 58 56 56 56 58 55 52 47 40 36 33 26 26 27 24 19 23 27 35 38 39 48 53 54 57 58 64 69 71 74 71
73 73 73 72 74 73 70 70 68 68 67 65 59 50 49 50 49 47 38 33 36 31 29 31 36 42 37 35 44 42 45 49 60 65 70 73 72 72
76 81 85 86 83 80 78 74 71 71 75 72 67 59 55 56 54 56 57 36 50 44 39 35 38 40 37 35 39 36 42 50 57 65 72 78 79 75
63 75 80 81 84 84 84 82 78 76 73 71 71 65 63 61 61 75 62 40 47 55 46 41 41 46 43 38 34 37 42 50 56 61 65 76 86 80
52 60 70 78 79 82 86 90 87 81 74 71 72 69 68 68 76 77 63 49 50 57 52 42 44 47 43 40 37 35 42 47 57 63 63 67 77 82
65 60 67 73 76 76 75 76 80 80 76 74 72 70 75 71 79 82 73 63 57 57 49 46 42 49 42 38 39 33 34 44 51 63 71 73 75 76
83 76 70 74 80 75 66 63 64 67 65 66 71 74 80 80 85 84 84 60 55 56 55 43 37 49 43 39 41 44 34 34 43 58 68 76 83 88
78 73 68 60 57 51 51 52 53 55 57 59 63 66 74 83 80 71 60 46 59 58 56 41 38 48 43 41 44 44 47 45 45 49 58 62 68 58
36 37 37 39 39 36 37 41 51 57 65 65 66 68 69 78 68 77 60 49 54 53 52 40 37 50 44 42 44 45 46 50 59 66 65 67 77 81
Wind_Direction_500mb
130 125 129 134 146 166 173 172 170 154 151 149 145 147 142 134 132 131 131 129 264 304 301 297 301 307 313 320 328 332 330 331 326 321 317 316 316 316
127 117 117 117 117 130 153 171 177 160 152 154 151 147 153 152 150 173 262 297 286 283 288 292 298 304 319 330 332 334 339 336 328 325 326 328 326 323
134 134 129 127 125 127 136 161 152 151 155 154 153 162 170 170 200 226 258 272 284 291 295 295 301 317 324 327 328 331 330 324 323 325 326 324 324 322
141 148 149 152 149 143 142 150 167 167 166 165 167 183 190 180 211 243 271 280 288 290 291 295 308 317 319 318 318 323 320 318 319 325 326 324 322 322
154 152 140 155 150 154 164 165 178 182 191 192 189 196 194 214 239 270 286 283 277 276 281 293 304 309 315 316 317 321 326 331 329 330 328 327 326 325
176 184 185 189 199 212 219 216 210 209 203 207 203 204 220 239 258 268 266 268 266 269 277 286 297 299 323 329 330 335 341 332 327 328 328 327 324 323
190 194 197 205 210 218 223 224 223 234 228 219 223 230 237 248 263 262 250 248 255 256 263 269 276 299 322 335 338 338 332 324 322 323 324 322 320 319
169 168 174 183 189 197 208 217 222 227 232 234 235 243 251 256 260 255 249 239 234 249 242 271 293 320 332 339 337 328 324 330 331 326 324 324 321 317
155 154 159 165 173 181 194 210 220 228 234 248 249 249 252 255 253 252 251 248 247 253 251 279 293 318 338 335 332 333 329 328 332 331 328 322 319 320
154 153 151 154 165 184 203 214 222 228 235 241 244 248 251 253 257 259 257 258 254 253 268 290 294 309 331 337 341 335 336 341 336 333 331 327 323 318
169 174 181 185 193 210 222 226 231 234 235 236 238 246 253 258 260 257 254 251 246 256 270 289 297 306 311 319 346 347 340 340 338 334 331 329 326 318
208 215 223 227 232 240 246 249 250 253 255 255 256 254 254 254 254 252 253 251 252 258 272 278 300 325 328 330 338 342 337 340 337 334 335 332 324 320
245 249 253 253 254 251 251 254 256 255 256 255 254 255 256 256 252 252 248 250 259 268 274 281 301 324 320 321 328 334 337 336 340 338 337 332 329 330
259 262 263 262 262 262 259 255 254 251 250 250 252 252 255 256 256 252 256 267 263 265 249 266 288 306 313 316 324 333 335 343 344 340 340 340 342 339
261 261 260 260 261 261 262 260 256 253 252 250 250 252 255 253 247 248 253 278 272 262 265 275 289 300 303 315 327 332 335 349 347 342 344 347 349 344
263 265 263 262 263 264 260 259 261 260 258 256 254 253 248 241 242 241 238 257 259 260 274 273 284 293 293 315 329 329 345 346 347 350 347 352 352 349
272 270 270 267 266 265 266 266 265 263 260 261 259 253 247 246 248 230 227 255 255 258 270 266 274 288 294 309 321 329 346 349 352 352 352 353 356 353
269 268 270 272 272 273 273 273 271 268 267 263 260 255 248 246 233 219 228 242 248 249 263 266 271 290 291 296 323 334 338 342 346 351 353 351 354 356
265 271 272 274 275 277 277 275 274 276 275 265 262 258 247 242 226 225 243 269 243 243 267 257 271 289 289 300 316 333 331 338 341 347 351 352 352 356
281 286 281 278 283 286 284 281 275 273 270 268 262 254 242 242 232 236 262 263 237 246 249 257 271 289 286 297 309 321 326 332 344 345 346 345 347 357
279 284 286 291 293 292 293 287 279 275 275 272 266 256 246 242 247 257 269 228 243 244 252 251 281 285 284 293 303 306 317 330 344 348 348 344 349 351
286 284 286 289 292 293 291 289 286 283 281 277 269 260 253 246 251 253 257 232 240 246 249 248 282 280 282 288 299 308 315 325 336 348 349 347 347 332
282 285 286 290 299 304 304 297 291 290 287 289 275 262 254 248 257 271 246 236 249 247 249 252 280 279 279 289 300 306 313 324 334 342 350 350 351 351
Wind_Speed_850mb
37 39 37 35 31 29 34 32 37 38 30 28 28 27 25 21 17 13 9 3 2 9 16 20 21 24 29 35 38 37 39 36 35 36 39 42 45 50
45 43 47 46 38 27 23 23 20 29 31 30 26 24 20 16 13 5 3 9 13 18 19 19 21 27 31 36 39 39 34 36 39 41 44 48 52 59
42 41 42 35 38 33 28 25 25 18 32 32 28 24 15 11 14 13 13 18 21 21 21 19 22 28 37 39 37 31 35 38 40 45 52 57 59 58
38 36 33 32 36 31 25 21 22 22 26 31 27 22 15 16 15 16 18 22 22 17 18 24 26 33 36 34 29 29 31 33 45 48 49 51 57 62
32 31 31 23 28 25 19 15 25 29 24 26 31 28 25 19 17 21 27 25 22 21 21 25 26 27 23 25 30 29 33 36 39 42 52 59 64 66
33 31 30 28 26 24 21 21 24 26 25 30 33 31 26 23 25 25 27 28 27 26 26 22 19 16 19 20 23 26 31 36 42 49 56 60 64 69
28 26 26 26 25 23 21 21 21 21 24 27 30 31 31 29 30 27 25 26 28 24 22 20 16 14 14 19 23 26 31 36 44 50 55 60 67 72
19 21 21 21 19 18 20 21 22 24 28 33 36 36 34 34 32 29 25 24 26 21 18 17 12 14 18 24 25 31 36 43 50 54 58 64 69 72
23 21 21 21 20 18 17 19 23 25 28 32 35 38 38 35 32 28 24 24 25 23 17 16 17 15 19 26 26 32 40 45 49 55 61 65 70 72
23 21 19 15 14 15 18 21 25 29 33 36 38 38 36 33 30 27 26 27 27 21 17 20 23 21 20 21 29 35 41 48 53 57 63 67 68 69
17 16 16 15 15 15 18 22 25 28 31 34 35 34 32 31 30 29 30 30 26 24 23 25 21 25 27 25 36 44 47 52 57 62 61 62 66 76
22 23 23 23 23 23 24 25 28 28 30 32 34 35 33 31 31 30 30 27 24 22 22 22 20 24 27 29 42 49 52 53 59 60 61 66 70 72
30 30 31 33 34 34 34 33 31 34 36 38 39 40 39 37 34 32 29 24 23 22 20 21 22 25 30 41 48 50 55 55 58 56 66 67 65 62
44 43 44 47 48 49 48 43 42 44 46 46 47 47 44 40 34 30 24 23 23 20 16 19 24 27 38 41 52 58 52 54 55 66 67 70 71 66
60 58 58 59 59 60 61 58 56 56 56 58 55 52 47 40 36 33 26 26 27 24 19 23 27 35 38 39 48 53 54 57 58 64 69 71 74 71
73 73 73 72 74 73 70 70 68 68 67 65 59 50 49 50 49 47 38 33 36 31 29 31 36 42 37 35 44 42 45 49 60 65 70 73 72 72
76 81 85 86 83 80 78 74 71 71 75 72 67 59 55 56 54 56 57 36 50 44 39 35 38 40 37 35 39 36 42 50 57 65 72 78 79 75
63 75 80 81 84 84 84 82 78 76 73 71 71 65 63 61 61 75 62 40 47 55 46 41 41 46 43 38 34 37 42 50 56 61 65 76 86 80
52 60 70 78 79 82 86 90 87 81 74 71 72 69 68 68 76 77 63 49 50 57 52 42 44 47 43 40 37 35 42 47 57 63 63 67 77 82
65 60 67 73 76 76 75 76 80 80 76 74 72 70 75 71 79 82 73 63 57 57 49 46 42 49 42 38 39 33 34 44 51 63 71 73 75 76
83 76 70 74 80 75 66 63 64 67 65 66 71 74 80 80 85 84 84 60 55 56 55 43 37 49 43 39 41 44 34 34 43 58 68 76 83 88
78 73 68 60 57 51 51 52 53 55 57 59 63 66 74 83 80 71 60 46 59 58 56 41 38 48 43 41 44 44 47 45 45 49 58 62 68 58
36 37 37 39 39 36 37 41 51 57 65 65 66 68 69 78 68 77 60 49 54 53 52 40 37 50 44 42 44 45 46 50 59 66 65 67 77 81
Wind_Direction_850mb
130 125 129 134 146 166 173 172 170 154 151 149 145 147 142 134 132 131 131 129 264 304 301 297 301 307 313 320 328 332 330 331 326 321 317 316 316 316
127 117 117 117 117 130 153 171 177 160 152 154 151 147 153 152 150 173 262 297 286 283 288 292 298 304 319 330 332 334 339 336 328 325 326 328 326 323
134 134 129 127 125 127 136 161 152 151 155 154 153 162 170 170 200 226 258 272 284 291 295 295 301 317 324 327 328 331 330 324 323 325 326 324 324 322
141 148 149 152 149 143 142 150 167 167 166 165 167 183 190 180 211 243 271 280 288 290 291 295 308 317 319 318 318 323 320 318 319 325 326 324 322 322
154 152 140 155 150 154 164 165 178 182 191 192 189 196 194 214 239 270 286 283 277 276 281 293 304 309 315 316 317 321 326 331 329 330 328 327 326 325
176 184 185 189 199 212 219 216 210 209 203 207 203 204 220 239 258 268 266 268 266 269 277 286 297 299 323 329 330 335 341 332 327 328 328 327 324 323
190 194 197 205 210 218 223 224 223 234 228 219 223 230 237 248 263 262 250 248 255 256 263 269 276 299 322 335 338 338 332 324 322 323 324 322 320 319
169 168 174 183 189 197 208 217 222 227 232 234 235 243 251 256 260 255 249 239 234 249 242 271 293 320 332 339 337 328 324 330 331 326 324 324 321 317
155 154 159 165 173 181 194 210 220 228 234 248 249 249 252 255 253 252 251 248 247 253 251 279 293 318 338 335 332 333 329 328 332 331 328 322 319 320
154 153 151 154 165 184 203 214 222 228 235 241 244 248 251 253 257 259 257 258 254 253 268 290 294 309 331 337 341 335 336 341 336 333 331 327 323 318
169 174 181 185 193 210 222 226 231 234 235 236 238 246 253 258 260 257 254 251 246 256 270 289 297 306 311 319 346 347 340 340 338 334 331 329 326 318
208 215 223 227 232 240 246 249 250 253 255 255 256 254 254 254 254 252 253 251 252 258 272 278 300 325 328 330 338 342 337 340 337 334 335 332 324 320
245 249 253 253 254 251 251 254 256 255 256 255 254 255 256 256 252 252 248 250 259 268 274 281 301 324 320 321 328 334 337 336 340 338 337 332 329 330
259 262 263 262 262 262 259 255 254 251 250 250 252 252 255 256 256 252 256 267 263 265 249 266 288 306 313 316 324 333 335 343 344 340 340 340 342 339
261 261 260 260 261 261 262 260 256 253 252 250 250 252 255 253 247 248 253 278 272 262 265 275 289 300 303 315 327 332 335 349 347 342 344 347 349 344
263 265 263 262 263 264 260 259 261 260 258 256 254 253 248 241 242 241 238 257 259 260 274 273 284 293 293 315 329 329 345 346 347 350 347 352 352 349
272 270 270 267 266 265 266 266 265 263 260 261 259 253 247 246 248 230 227 255 255 258 270 266 274 288 294 309 321 329 346 349 352 352 352 353 356 353
269 268 270 272 272 273 273 273 271 268 267 263 260 255 248 246 233 219 228 242 248 249 263 266 271 290 291 296 323 334 338 342 346 351 353 351 354 356
265 271 272 274 275 277 277 275 274 276 275 265 262 258 247 242 226 225 243 269 243 243 267 257 271 289 289 300 316 333 331 338 341 347 351 352 352 356
281 286 281 278 283 286 284 281 275 273 270 268 262 254 242 242 232 236 262 263 237 246 249 257 271 289 286 297 309 321 326 332 344 345 346 345 347 357
279 284 286 291 293 292 293 287 279 275 275 272 266 256 246 242 247 257 269 228 243 244 252 251 281 285 284 293 303 306 317 330 344 348 348 344 349 351
286 284 286 289 292 293 291 289 286 283 281 277 269 260 253 246 251 253 257 232 240 246 249 248 282 280 282 288 299 308 315 325 336 348 349 347 347 332
282 285 286 290 299 304 304 297 291 290 287 289 275 262 254 248 257 271 246 236 249 247 249 252 280 279 279 289 300 306 313 324 334 342 350 350 351 351